TimePDT,TemperatureF,Dew PointF,Humidity,Sea Level PressureIn,VisibilityMPH,Wind Direction,Wind SpeedMPH,Gust SpeedMPH,PrecipitationIn,Events,Conditions,WindDirDegrees,DateUTC
12:56 AM,41.0,39.0,93,29.97,10.0,Calm,Calm,-,N/A,,Clear,0,2011-10-15 07:56:00
1:56 AM,41.0,37.9,89,29.97,10.0,Calm,Calm,-,N/A,,Clear,0,2011-10-15 08:56:00
2:56 AM,39.0,37.0,93,29.98,10.0,South,5.8,-,N/A,,Clear,180,2011-10-15 09:56:00
3:56 AM,39.0,37.0,93,29.97,10.0,Calm,Calm,-,N/A,,Clear,0,2011-10-15 10:56:00
4:56 AM,37.4,37.4,100,29.98,10.0,SSE,4.6,-,N/A,,Clear,150,2011-10-15 11:56:00
5:56 AM,39.0,37.9,96,29.99,10.0,NNW,5.8,-,N/A,,Clear,330,2011-10-15 12:56:00
6:56 AM,35.1,34.0,96,30.02,6.0,South,5.8,-,N/A,,Clear,180,2011-10-15 13:56:00
7:56 AM,39.0,37.0,93,30.03,10.0,WSW,3.5,-,N/A,,Scattered Clouds,240,2011-10-15 14:56:00
8:56 AM,44.1,41.0,89,30.04,10.0,Calm,Calm,-,N/A,,Clear,0,2011-10-15 15:56:00
9:56 AM,50.0,42.1,74,30.05,10.0,Calm,Calm,-,N/A,,Clear,0,2011-10-15 16:56:00
10:56 AM,55.0,43.0,64,30.03,10.0,Variable,4.6,-,N/A,,Clear,0,2011-10-15 17:56:00
11:56 AM,57.0,44.1,62,30.02,10.0,Variable,4.6,-,N/A,,Clear,0,2011-10-15 18:56:00
12:56 PM,60.1,45.0,57,30.01,10.0,Variable,4.6,-,N/A,,Clear,0,2011-10-15 19:56:00
1:56 PM,62.1,45.0,53,30.00,10.0,NW,6.9,-,N/A,,Clear,320,2011-10-15 20:56:00
2:56 PM,64.0,46.0,52,29.99,10.0,NW,9.2,-,N/A,,Clear,320,2011-10-15 21:56:00
3:56 PM,63.0,45.0,52,29.97,10.0,NW,8.1,-,N/A,,Clear,320,2011-10-15 22:56:00
4:56 PM,60.1,45.0,57,29.98,10.0,NNW,11.5,-,N/A,,Clear,330,2011-10-15 23:56:00
5:56 PM,57.9,44.1,60,29.98,10.0,NNW,10.4,-,N/A,,Partly Cloudy,330,2011-10-16 00:56:00
6:56 PM,55.9,43.0,62,30.00,10.0,NW,8.1,-,N/A,,Mostly Cloudy,310,2011-10-16 01:56:00
7:56 PM,54.0,43.0,66,30.01,10.0,NW,6.9,-,N/A,,Mostly Cloudy,320,2011-10-16 02:56:00
8:56 PM,51.8,44.6,76,30.01,10.0,NW,4.6,-,N/A,,Overcast,320,2011-10-16 03:56:00
9:56 PM,51.1,44.1,77,30.01,10.0,West,6.9,-,N/A,,Overcast,280,2011-10-16 04:56:00
10:56 PM,50.0,44.6,82,30.03,10.0,WNW,8.1,-,N/A,,Overcast,300,2011-10-16 05:56:00
11:56 PM,48.0,44.1,86,30.00,10.0,Calm,Calm,-,N/A,,Mostly Cloudy,0,2011-10-16 06:56:00